NORTH FORK SOUTH PLATTE RIVER AT BAILEY [ USA-COL ]

Edit Gauge

Current Conditions

Reading of "n/a" = frozen gauge or gauge error.
Reading Trend Type Updated
410 cfs -9 cfs/hr Flow 01h39m
1.03 ft -0.01 ft/hr Feet Stage 01h39m

Station Description

AW Gauge ID: 49934
Source: codwr
Station: PLABAICO0
Enabled yes
Data is courtesy of Colorado DWR. All data presented on the Colorado Division of Water Resources Current Conditions Web Site are provisional and subject to revision. These data include water levels in lakes and reservoirs, and in streams, rivers, and other water courses; computed stream discharges; and various weather parameters (temperature, precipitation, etc.). Most data relayed by satellite or other telemetry have received little or no review prior to posting on the web site. Data users are cautioned to consider carefully the provisional nature of the information before using it for decisions that concern personal or public safety or the conduct of business that involves substantial monetary or operational consequences. Source Gauge's Page

Information

Feet Stage

Gauge History

Times listed in GMT 24h, ET and PT hours provided for convenience Graphs in GMT. Readings of "n/a" constitute a frozen gauge or gauge error.
Reading Updated (GMT) Eastern Pacific Comment
1.03 06/21/2018 18:14:24 Jun 21 02:14 pm Jun 21 11:14 am
1.04 06/21/2018 17:14:40 Jun 21 01:14 pm Jun 21 10:14 am
1.04 06/21/2018 16:14:56 Jun 21 12:14 pm Jun 21 9:14 am
1.05 06/21/2018 15:13:04 Jun 21 11:13 am Jun 21 8:13 am
1.17 06/21/2018 14:13:20 Jun 21 10:13 am Jun 21 7:13 am
1.17 06/21/2018 13:13:36 Jun 21 09:13 am Jun 21 6:13 am
1.19 06/21/2018 10:14:24 Jun 21 06:14 am Jun 21 3:14 am
1.18 06/21/2018 08:14:56 Jun 21 04:14 am Jun 21 1:14 am
1.18 06/21/2018 07:13:04 Jun 21 03:13 am Jun 21 12:13 am
1.18 06/21/2018 06:13:20 Jun 21 02:13 am Jun 20 11:13 pm
1.18 06/21/2018 05:13:36 Jun 21 01:13 am Jun 20 10:13 pm
1.18 06/21/2018 04:13:52 Jun 21 12:13 am Jun 20 9:13 pm
1.18 06/21/2018 03:14:08 Jun 20 11:14 pm Jun 20 8:14 pm
1.17 06/21/2018 02:14:24 Jun 20 10:14 pm Jun 20 7:14 pm
1.17 06/21/2018 01:14:40 Jun 20 09:14 pm Jun 20 6:14 pm
1.17 06/21/2018 00:14:56 Jun 20 08:14 pm Jun 20 5:14 pm
1.17 06/20/2018 23:13:04 Jun 20 07:13 pm Jun 20 4:13 pm
1.17 06/20/2018 22:13:20 Jun 20 06:13 pm Jun 20 3:13 pm
1.06 06/20/2018 21:13:36 Jun 20 05:13 pm Jun 20 2:13 pm
1.05 06/20/2018 20:13:52 Jun 20 04:13 pm Jun 20 1:13 pm
1.05 06/20/2018 19:14:08 Jun 20 03:14 pm Jun 20 12:14 pm
1.01 06/20/2018 18:14:24 Jun 20 02:14 pm Jun 20 11:14 am
0.94 06/20/2018 17:14:40 Jun 20 01:14 pm Jun 20 10:14 am
0.94 06/20/2018 16:14:56 Jun 20 12:14 pm Jun 20 9:14 am
0.95 06/20/2018 15:13:04 Jun 20 11:13 am Jun 20 8:13 am
0.95 06/20/2018 14:13:20 Jun 20 10:13 am Jun 20 7:13 am
0.94 06/20/2018 13:13:36 Jun 20 09:13 am Jun 20 6:13 am
0.94 06/20/2018 12:13:52 Jun 20 08:13 am Jun 20 5:13 am
0.95 06/20/2018 11:14:08 Jun 20 07:14 am Jun 20 4:14 am
0.94 06/20/2018 10:14:24 Jun 20 06:14 am Jun 20 3:14 am
0.94 06/20/2018 09:14:40 Jun 20 05:14 am Jun 20 2:14 am
0.94 06/20/2018 08:14:56 Jun 20 04:14 am Jun 20 1:14 am
0.94 06/20/2018 07:13:04 Jun 20 03:13 am Jun 20 12:13 am
0.94 06/20/2018 06:13:20 Jun 20 02:13 am Jun 19 11:13 pm
0.94 06/20/2018 05:13:36 Jun 20 01:13 am Jun 19 10:13 pm
0.94 06/20/2018 04:13:52 Jun 20 12:13 am Jun 19 9:13 pm
0.95 06/20/2018 03:14:08 Jun 19 11:14 pm Jun 19 8:14 pm
0.94 06/20/2018 02:14:24 Jun 19 10:14 pm Jun 19 7:14 pm
0.95 06/20/2018 01:14:40 Jun 19 09:14 pm Jun 19 6:14 pm
0.95 06/20/2018 00:14:56 Jun 19 08:14 pm Jun 19 5:14 pm
0.95 06/19/2018 23:13:04 Jun 19 07:13 pm Jun 19 4:13 pm
0.95 06/19/2018 22:13:20 Jun 19 06:13 pm Jun 19 3:13 pm
0.95 06/19/2018 21:13:36 Jun 19 05:13 pm Jun 19 2:13 pm
0.94 06/19/2018 20:13:52 Jun 19 04:13 pm Jun 19 1:13 pm
0.94 06/19/2018 19:14:08 Jun 19 03:14 pm Jun 19 12:14 pm
0.94 06/19/2018 18:14:24 Jun 19 02:14 pm Jun 19 11:14 am
0.95 06/19/2018 17:14:40 Jun 19 01:14 pm Jun 19 10:14 am
0.95 06/19/2018 16:14:56 Jun 19 12:14 pm Jun 19 9:14 am
0.95 06/19/2018 15:13:04 Jun 19 11:13 am Jun 19 8:13 am
0.95 06/19/2018 14:13:20 Jun 19 10:13 am Jun 19 7:13 am
0.95 06/19/2018 13:13:36 Jun 19 09:13 am Jun 19 6:13 am
0.95 06/19/2018 12:13:52 Jun 19 08:13 am Jun 19 5:13 am
0.95 06/19/2018 11:14:08 Jun 19 07:14 am Jun 19 4:14 am
0.95 06/19/2018 10:14:24 Jun 19 06:14 am Jun 19 3:14 am
0.95 06/19/2018 09:14:40 Jun 19 05:14 am Jun 19 2:14 am
0.95 06/19/2018 08:14:56 Jun 19 04:14 am Jun 19 1:14 am
0.95 06/19/2018 07:13:04 Jun 19 03:13 am Jun 19 12:13 am
0.95 06/19/2018 06:13:20 Jun 19 02:13 am Jun 18 11:13 pm
0.95 06/19/2018 05:13:36 Jun 19 01:13 am Jun 18 10:13 pm
0.95 06/19/2018 04:13:52 Jun 19 12:13 am Jun 18 9:13 pm
0.95 06/19/2018 03:14:08 Jun 18 11:14 pm Jun 18 8:14 pm
0.95 06/19/2018 02:14:24 Jun 18 10:14 pm Jun 18 7:14 pm
0.96 06/19/2018 01:14:40 Jun 18 09:14 pm Jun 18 6:14 pm
0.96 06/19/2018 00:14:56 Jun 18 08:14 pm Jun 18 5:14 pm
0.97 06/18/2018 23:13:04 Jun 18 07:13 pm Jun 18 4:13 pm
0.97 06/18/2018 22:13:20 Jun 18 06:13 pm Jun 18 3:13 pm
0.98 06/18/2018 21:13:36 Jun 18 05:13 pm Jun 18 2:13 pm
0.98 06/18/2018 20:13:52 Jun 18 04:13 pm Jun 18 1:13 pm
0.99 06/18/2018 19:14:08 Jun 18 03:14 pm Jun 18 12:14 pm
1.00 06/18/2018 18:14:24 Jun 18 02:14 pm Jun 18 11:14 am
1.02 06/18/2018 17:14:40 Jun 18 01:14 pm Jun 18 10:14 am
1.14 06/18/2018 16:14:56 Jun 18 12:14 pm Jun 18 9:14 am
1.15 06/18/2018 15:13:04 Jun 18 11:13 am Jun 18 8:13 am
1.15 06/18/2018 14:13:20 Jun 18 10:13 am Jun 18 7:13 am
1.15 06/18/2018 13:13:36 Jun 18 09:13 am Jun 18 6:13 am
1.15 06/18/2018 12:13:52 Jun 18 08:13 am Jun 18 5:13 am
1.15 06/18/2018 11:14:08 Jun 18 07:14 am Jun 18 4:14 am
1.15 06/18/2018 10:14:24 Jun 18 06:14 am Jun 18 3:14 am
1.15 06/18/2018 09:14:40 Jun 18 05:14 am Jun 18 2:14 am
1.15 06/18/2018 08:14:56 Jun 18 04:14 am Jun 18 1:14 am
1.16 06/18/2018 07:13:04 Jun 18 03:13 am Jun 18 12:13 am
1.16 06/18/2018 06:13:20 Jun 18 02:13 am Jun 17 11:13 pm
1.16 06/18/2018 05:13:36 Jun 18 01:13 am Jun 17 10:13 pm
1.15 06/18/2018 04:13:52 Jun 18 12:13 am Jun 17 9:13 pm
1.15 06/18/2018 03:14:08 Jun 17 11:14 pm Jun 17 8:14 pm
1.15 06/18/2018 02:14:24 Jun 17 10:14 pm Jun 17 7:14 pm
1.15 06/18/2018 01:14:40 Jun 17 09:14 pm Jun 17 6:14 pm
1.09 06/18/2018 00:14:56 Jun 17 08:14 pm Jun 17 5:14 pm
1.08 06/17/2018 23:13:04 Jun 17 07:13 pm Jun 17 4:13 pm
1.08 06/17/2018 22:13:20 Jun 17 06:13 pm Jun 17 3:13 pm
1.05 06/17/2018 21:13:36 Jun 17 05:13 pm Jun 17 2:13 pm
1.04 06/17/2018 20:13:52 Jun 17 04:13 pm Jun 17 1:13 pm
1.04 06/17/2018 19:14:08 Jun 17 03:14 pm Jun 17 12:14 pm
1.05 06/17/2018 18:14:24 Jun 17 02:14 pm Jun 17 11:14 am
1.05 06/17/2018 17:14:40 Jun 17 01:14 pm Jun 17 10:14 am
1.05 06/17/2018 16:14:56 Jun 17 12:14 pm Jun 17 9:14 am
1.05 06/17/2018 15:13:04 Jun 17 11:13 am Jun 17 8:13 am
1.05 06/17/2018 14:13:20 Jun 17 10:13 am Jun 17 7:13 am
1.05 06/17/2018 13:13:36 Jun 17 09:13 am Jun 17 6:13 am
1.05 06/17/2018 12:13:52 Jun 17 08:13 am Jun 17 5:13 am
1.04 06/17/2018 11:14:08 Jun 17 07:14 am Jun 17 4:14 am
1.04 06/17/2018 10:14:24 Jun 17 06:14 am Jun 17 3:14 am
1.05 06/17/2018 09:14:40 Jun 17 05:14 am Jun 17 2:14 am
1.04 06/17/2018 08:14:56 Jun 17 04:14 am Jun 17 1:14 am
1.04 06/17/2018 07:13:04 Jun 17 03:13 am Jun 17 12:13 am
1.05 06/17/2018 06:13:20 Jun 17 02:13 am Jun 16 11:13 pm
1.04 06/17/2018 05:13:36 Jun 17 01:13 am Jun 16 10:13 pm
1.04 06/17/2018 04:13:52 Jun 17 12:13 am Jun 16 9:13 pm
1.04 06/17/2018 02:14:24 Jun 16 10:14 pm Jun 16 7:14 pm
1.04 06/16/2018 23:13:04 Jun 16 07:13 pm Jun 16 4:13 pm
1.04 06/16/2018 22:13:20 Jun 16 06:13 pm Jun 16 3:13 pm
1.05 06/16/2018 19:14:08 Jun 16 03:14 pm Jun 16 12:14 pm
1.04 06/16/2018 18:14:24 Jun 16 02:14 pm Jun 16 11:14 am
1.05 06/16/2018 17:14:40 Jun 16 01:14 pm Jun 16 10:14 am
1.05 06/16/2018 16:14:56 Jun 16 12:14 pm Jun 16 9:14 am
1.05 06/16/2018 15:13:04 Jun 16 11:13 am Jun 16 8:13 am
1.05 06/16/2018 13:13:36 Jun 16 09:13 am Jun 16 6:13 am
1.05 06/16/2018 12:13:52 Jun 16 08:13 am Jun 16 5:13 am
1.05 06/16/2018 11:14:08 Jun 16 07:14 am Jun 16 4:14 am
1.05 06/16/2018 10:14:24 Jun 16 06:14 am Jun 16 3:14 am
1.04 06/16/2018 09:14:40 Jun 16 05:14 am Jun 16 2:14 am
1.05 06/16/2018 08:14:56 Jun 16 04:14 am Jun 16 1:14 am
1.04 06/16/2018 07:13:04 Jun 16 03:13 am Jun 16 12:13 am
1.04 06/16/2018 06:13:20 Jun 16 02:13 am Jun 15 11:13 pm
1.03 06/16/2018 05:13:36 Jun 16 01:13 am Jun 15 10:13 pm
1.03 06/16/2018 04:13:52 Jun 16 12:13 am Jun 15 9:13 pm
1.03 06/16/2018 03:14:08 Jun 15 11:14 pm Jun 15 8:14 pm
1.03 06/16/2018 00:14:56 Jun 15 08:14 pm Jun 15 5:14 pm
1.04 06/15/2018 23:13:04 Jun 15 07:13 pm Jun 15 4:13 pm
1.04 06/15/2018 22:13:20 Jun 15 06:13 pm Jun 15 3:13 pm
1.04 06/15/2018 21:13:36 Jun 15 05:13 pm Jun 15 2:13 pm
1.04 06/15/2018 20:13:52 Jun 15 04:13 pm Jun 15 1:13 pm
1.05 06/15/2018 19:14:08 Jun 15 03:14 pm Jun 15 12:14 pm
1.05 06/15/2018 18:14:24 Jun 15 02:14 pm Jun 15 11:14 am
1.05 06/15/2018 17:14:40 Jun 15 01:14 pm Jun 15 10:14 am
1.05 06/15/2018 16:14:56 Jun 15 12:14 pm Jun 15 9:14 am
1.05 06/15/2018 15:13:04 Jun 15 11:13 am Jun 15 8:13 am
1.05 06/15/2018 14:13:20 Jun 15 10:13 am Jun 15 7:13 am
1.06 06/15/2018 13:13:36 Jun 15 09:13 am Jun 15 6:13 am
1.06 06/15/2018 12:13:52 Jun 15 08:13 am Jun 15 5:13 am
1.06 06/15/2018 11:14:08 Jun 15 07:14 am Jun 15 4:14 am
1.05 06/15/2018 10:14:24 Jun 15 06:14 am Jun 15 3:14 am
1.05 06/15/2018 09:14:40 Jun 15 05:14 am Jun 15 2:14 am
1.05 06/15/2018 08:14:56 Jun 15 04:14 am Jun 15 1:14 am
1.04 06/15/2018 07:13:04 Jun 15 03:13 am Jun 15 12:13 am
1.04 06/15/2018 06:13:20 Jun 15 02:13 am Jun 14 11:13 pm
1.04 06/15/2018 05:13:36 Jun 15 01:13 am Jun 14 10:13 pm
1.04 06/15/2018 04:13:52 Jun 15 12:13 am Jun 14 9:13 pm
1.04 06/15/2018 03:14:08 Jun 14 11:14 pm Jun 14 8:14 pm
1.03 06/15/2018 01:14:40 Jun 14 09:14 pm Jun 14 6:14 pm
1.04 06/15/2018 00:14:56 Jun 14 08:14 pm Jun 14 5:14 pm
1.05 06/14/2018 23:13:04 Jun 14 07:13 pm Jun 14 4:13 pm
1.05 06/14/2018 22:13:20 Jun 14 06:13 pm Jun 14 3:13 pm
1.05 06/14/2018 21:13:36 Jun 14 05:13 pm Jun 14 2:13 pm
1.06 06/14/2018 20:13:52 Jun 14 04:13 pm Jun 14 1:13 pm
1.07 06/14/2018 19:14:08 Jun 14 03:14 pm Jun 14 12:14 pm
1.07 06/14/2018 18:14:24 Jun 14 02:14 pm Jun 14 11:14 am
1.07 06/14/2018 17:14:40 Jun 14 01:14 pm Jun 14 10:14 am
1.07 06/14/2018 16:14:56 Jun 14 12:14 pm Jun 14 9:14 am
1.07 06/14/2018 15:13:04 Jun 14 11:13 am Jun 14 8:13 am
1.07 06/14/2018 12:13:52 Jun 14 08:13 am Jun 14 5:13 am
1.07 06/14/2018 11:14:08 Jun 14 07:14 am Jun 14 4:14 am
1.07 06/14/2018 10:14:24 Jun 14 06:14 am Jun 14 3:14 am
1.07 06/14/2018 09:14:40 Jun 14 05:14 am Jun 14 2:14 am
1.07 06/14/2018 08:14:56 Jun 14 04:14 am Jun 14 1:14 am
1.06 06/14/2018 07:13:04 Jun 14 03:13 am Jun 14 12:13 am
1.05 06/14/2018 06:13:20 Jun 14 02:13 am Jun 13 11:13 pm
1.05 06/14/2018 05:13:36 Jun 14 01:13 am Jun 13 10:13 pm
1.05 06/14/2018 04:13:52 Jun 14 12:13 am Jun 13 9:13 pm
1.04 06/14/2018 01:14:40 Jun 13 09:14 pm Jun 13 6:14 pm
1.05 06/14/2018 00:14:56 Jun 13 08:14 pm Jun 13 5:14 pm
1.05 06/13/2018 23:13:04 Jun 13 07:13 pm Jun 13 4:13 pm
1.05 06/13/2018 22:13:20 Jun 13 06:13 pm Jun 13 3:13 pm
1.06 06/13/2018 21:13:36 Jun 13 05:13 pm Jun 13 2:13 pm
1.06 06/13/2018 20:13:52 Jun 13 04:13 pm Jun 13 1:13 pm
1.06 06/13/2018 19:14:08 Jun 13 03:14 pm Jun 13 12:14 pm
1.06 06/13/2018 18:14:24 Jun 13 02:14 pm Jun 13 11:14 am
1.07 06/13/2018 17:14:40 Jun 13 01:14 pm Jun 13 10:14 am
1.07 06/13/2018 16:14:56 Jun 13 12:14 pm Jun 13 9:14 am
1.07 06/13/2018 15:13:04 Jun 13 11:13 am Jun 13 8:13 am
1.07 06/13/2018 14:13:20 Jun 13 10:13 am Jun 13 7:13 am
1.07 06/13/2018 13:13:36 Jun 13 09:13 am Jun 13 6:13 am
1.07 06/13/2018 12:13:52 Jun 13 08:13 am Jun 13 5:13 am
1.07 06/13/2018 11:14:08 Jun 13 07:14 am Jun 13 4:14 am
1.07 06/13/2018 10:14:24 Jun 13 06:14 am Jun 13 3:14 am
1.07 06/13/2018 09:14:40 Jun 13 05:14 am Jun 13 2:14 am
1.06 06/13/2018 08:14:56 Jun 13 04:14 am Jun 13 1:14 am
1.07 06/13/2018 07:13:04 Jun 13 03:13 am Jun 13 12:13 am
1.06 06/13/2018 06:13:20 Jun 13 02:13 am Jun 12 11:13 pm
1.06 06/13/2018 05:13:36 Jun 13 01:13 am Jun 12 10:13 pm
1.05 06/13/2018 04:13:52 Jun 13 12:13 am Jun 12 9:13 pm
1.05 06/13/2018 03:14:08 Jun 12 11:14 pm Jun 12 8:14 pm
1.06 06/12/2018 23:13:04 Jun 12 07:13 pm Jun 12 4:13 pm
1.06 06/12/2018 22:13:20 Jun 12 06:13 pm Jun 12 3:13 pm
1.06 06/12/2018 21:13:36 Jun 12 05:13 pm Jun 12 2:13 pm
1.07 06/12/2018 20:13:52 Jun 12 04:13 pm Jun 12 1:13 pm
1.07 06/12/2018 19:14:08 Jun 12 03:14 pm Jun 12 12:14 pm
1.06 06/12/2018 18:14:24 Jun 12 02:14 pm Jun 12 11:14 am
1.08 06/12/2018 17:14:40 Jun 12 01:14 pm Jun 12 10:14 am
1.08 06/12/2018 16:14:56 Jun 12 12:14 pm Jun 12 9:14 am
1.08 06/12/2018 15:13:04 Jun 12 11:13 am Jun 12 8:13 am
1.08 06/12/2018 13:13:36 Jun 12 09:13 am Jun 12 6:13 am
1.08 06/12/2018 12:13:52 Jun 12 08:13 am Jun 12 5:13 am
1.08 06/12/2018 11:14:08 Jun 12 07:14 am Jun 12 4:14 am
1.08 06/12/2018 10:14:24 Jun 12 06:14 am Jun 12 3:14 am
1.08 06/12/2018 09:14:40 Jun 12 05:14 am Jun 12 2:14 am
1.08 06/12/2018 08:14:56 Jun 12 04:14 am Jun 12 1:14 am
1.07 06/12/2018 07:13:04 Jun 12 03:13 am Jun 12 12:13 am
1.06 06/12/2018 01:14:40 Jun 11 09:14 pm Jun 11 6:14 pm
1.06 06/12/2018 00:14:56 Jun 11 08:14 pm Jun 11 5:14 pm
1.07 06/11/2018 23:13:04 Jun 11 07:13 pm Jun 11 4:13 pm
1.07 06/11/2018 22:13:20 Jun 11 06:13 pm Jun 11 3:13 pm
1.08 06/11/2018 21:13:36 Jun 11 05:13 pm Jun 11 2:13 pm
1.09 06/11/2018 18:14:24 Jun 11 02:14 pm Jun 11 11:14 am
1.09 06/11/2018 17:14:40 Jun 11 01:14 pm Jun 11 10:14 am
1.10 06/11/2018 16:14:56 Jun 11 12:14 pm Jun 11 9:14 am
1.10 06/11/2018 15:13:04 Jun 11 11:13 am Jun 11 8:13 am
1.11 06/11/2018 13:13:36 Jun 11 09:13 am Jun 11 6:13 am
1.11 06/11/2018 12:13:52 Jun 11 08:13 am Jun 11 5:13 am
1.10 06/11/2018 11:14:08 Jun 11 07:14 am Jun 11 4:14 am
1.10 06/11/2018 10:14:24 Jun 11 06:14 am Jun 11 3:14 am
1.10 06/11/2018 09:14:40 Jun 11 05:14 am Jun 11 2:14 am
1.10 06/11/2018 08:14:56 Jun 11 04:14 am Jun 11 1:14 am
1.10 06/11/2018 07:13:04 Jun 11 03:13 am Jun 11 12:13 am
1.09 06/11/2018 06:13:20 Jun 11 02:13 am Jun 10 11:13 pm
1.08 06/11/2018 05:13:36 Jun 11 01:13 am Jun 10 10:13 pm
1.09 06/11/2018 04:13:52 Jun 11 12:13 am Jun 10 9:13 pm
1.08 06/11/2018 03:14:08 Jun 10 11:14 pm Jun 10 8:14 pm
1.07 06/11/2018 01:14:40 Jun 10 09:14 pm Jun 10 6:14 pm
1.07 06/11/2018 00:14:56 Jun 10 08:14 pm Jun 10 5:14 pm
1.08 06/10/2018 23:13:04 Jun 10 07:13 pm Jun 10 4:13 pm
1.08 06/10/2018 22:13:20 Jun 10 06:13 pm Jun 10 3:13 pm
1.08 06/10/2018 21:13:36 Jun 10 05:13 pm Jun 10 2:13 pm
1.09 06/10/2018 20:13:52 Jun 10 04:13 pm Jun 10 1:13 pm
1.09 06/10/2018 19:14:08 Jun 10 03:14 pm Jun 10 12:14 pm
1.09 06/10/2018 18:14:24 Jun 10 02:14 pm Jun 10 11:14 am
1.10 06/10/2018 17:14:40 Jun 10 01:14 pm Jun 10 10:14 am
1.10 06/10/2018 16:14:56 Jun 10 12:14 pm Jun 10 9:14 am
1.11 06/10/2018 15:13:04 Jun 10 11:13 am Jun 10 8:13 am
1.10 06/10/2018 13:13:36 Jun 10 09:13 am Jun 10 6:13 am
1.11 06/10/2018 12:13:52 Jun 10 08:13 am Jun 10 5:13 am
1.11 06/10/2018 11:14:08 Jun 10 07:14 am Jun 10 4:14 am
1.11 06/10/2018 10:14:24 Jun 10 06:14 am Jun 10 3:14 am
1.11 06/10/2018 09:14:40 Jun 10 05:14 am Jun 10 2:14 am
1.10 06/10/2018 08:14:56 Jun 10 04:14 am Jun 10 1:14 am
1.10 06/10/2018 07:13:04 Jun 10 03:13 am Jun 10 12:13 am
1.10 06/10/2018 06:13:20 Jun 10 02:13 am Jun 9 11:13 pm
1.09 06/10/2018 05:13:36 Jun 10 01:13 am Jun 9 10:13 pm
1.09 06/10/2018 04:13:52 Jun 10 12:13 am Jun 9 9:13 pm
1.08 06/10/2018 03:14:08 Jun 9 11:14 pm Jun 9 8:14 pm
1.07 06/10/2018 01:14:40 Jun 9 09:14 pm Jun 9 6:14 pm
1.06 06/10/2018 00:14:56 Jun 9 08:14 pm Jun 9 5:14 pm
1.07 06/09/2018 23:13:04 Jun 9 07:13 pm Jun 9 4:13 pm
1.08 06/09/2018 22:13:20 Jun 9 06:13 pm Jun 9 3:13 pm
1.09 06/09/2018 21:13:36 Jun 9 05:13 pm Jun 9 2:13 pm
1.09 06/09/2018 20:13:52 Jun 9 04:13 pm Jun 9 1:13 pm
1.10 06/09/2018 19:14:08 Jun 9 03:14 pm Jun 9 12:14 pm
1.10 06/09/2018 18:14:24 Jun 9 02:14 pm Jun 9 11:14 am
1.10 06/09/2018 17:14:40 Jun 9 01:14 pm Jun 9 10:14 am
1.11 06/09/2018 16:14:56 Jun 9 12:14 pm Jun 9 9:14 am
1.11 06/09/2018 15:13:04 Jun 9 11:13 am Jun 9 8:13 am
1.11 06/09/2018 13:13:36 Jun 9 09:13 am Jun 9 6:13 am
1.11 06/09/2018 12:13:52 Jun 9 08:13 am Jun 9 5:13 am
1.11 06/09/2018 11:14:08 Jun 9 07:14 am Jun 9 4:14 am
1.12 06/09/2018 10:14:24 Jun 9 06:14 am Jun 9 3:14 am
1.11 06/09/2018 09:14:40 Jun 9 05:14 am Jun 9 2:14 am
1.12 06/09/2018 08:14:56 Jun 9 04:14 am Jun 9 1:14 am
1.11 06/09/2018 07:13:04 Jun 9 03:13 am Jun 9 12:13 am
1.11 06/09/2018 06:13:20 Jun 9 02:13 am Jun 8 11:13 pm
1.10 06/09/2018 05:13:36 Jun 9 01:13 am Jun 8 10:13 pm
1.09 06/09/2018 04:13:52 Jun 9 12:13 am Jun 8 9:13 pm
1.09 06/09/2018 03:14:08 Jun 8 11:14 pm Jun 8 8:14 pm
1.08 06/09/2018 00:14:56 Jun 8 08:14 pm Jun 8 5:14 pm
1.08 06/08/2018 23:13:04 Jun 8 07:13 pm Jun 8 4:13 pm
1.09 06/08/2018 22:13:20 Jun 8 06:13 pm Jun 8 3:13 pm
1.09 06/08/2018 21:13:36 Jun 8 05:13 pm Jun 8 2:13 pm
1.10 06/08/2018 20:13:52 Jun 8 04:13 pm Jun 8 1:13 pm
1.10 06/08/2018 19:14:08 Jun 8 03:14 pm Jun 8 12:14 pm
1.11 06/08/2018 18:14:24 Jun 8 02:14 pm Jun 8 11:14 am
1.11 06/08/2018 17:14:40 Jun 8 01:14 pm Jun 8 10:14 am
1.11 06/08/2018 16:14:56 Jun 8 12:14 pm Jun 8 9:14 am
1.11 06/08/2018 15:13:04 Jun 8 11:13 am Jun 8 8:13 am
1.12 06/08/2018 14:13:20 Jun 8 10:13 am Jun 8 7:13 am
1.12 06/08/2018 13:13:36 Jun 8 09:13 am Jun 8 6:13 am
1.13 06/08/2018 12:13:52 Jun 8 08:13 am Jun 8 5:13 am
1.13 06/08/2018 11:14:08 Jun 8 07:14 am Jun 8 4:14 am
1.12 06/08/2018 10:14:24 Jun 8 06:14 am Jun 8 3:14 am
1.12 06/08/2018 09:14:40 Jun 8 05:14 am Jun 8 2:14 am
1.12 06/08/2018 08:14:56 Jun 8 04:14 am Jun 8 1:14 am
1.13 06/08/2018 07:13:04 Jun 8 03:13 am Jun 8 12:13 am
1.12 06/08/2018 06:13:20 Jun 8 02:13 am Jun 7 11:13 pm
1.12 06/08/2018 05:13:36 Jun 8 01:13 am Jun 7 10:13 pm
1.12 06/08/2018 04:13:52 Jun 8 12:13 am Jun 7 9:13 pm
1.11 06/08/2018 03:14:08 Jun 7 11:14 pm Jun 7 8:14 pm
1.09 06/07/2018 22:13:20 Jun 7 06:13 pm Jun 7 3:13 pm
1.10 06/07/2018 21:13:36 Jun 7 05:13 pm Jun 7 2:13 pm
1.10 06/07/2018 20:13:52 Jun 7 04:13 pm Jun 7 1:13 pm
1.10 06/07/2018 19:14:08 Jun 7 03:14 pm Jun 7 12:14 pm
1.10 06/07/2018 18:14:24 Jun 7 02:14 pm Jun 7 11:14 am
1.11 06/07/2018 17:14:40 Jun 7 01:14 pm Jun 7 10:14 am

Flow

Gauge History

Times listed in GMT 24h, ET and PT hours provided for convenience Graphs in GMT. Readings of "n/a" constitute a frozen gauge or gauge error.
Reading Updated (GMT) Eastern Pacific Comment
410.00 06/21/2018 18:14:24 Jun 21 02:14 pm Jun 21 11:14 am
419.00 06/21/2018 17:14:40 Jun 21 01:14 pm Jun 21 10:14 am
419.00 06/21/2018 16:14:56 Jun 21 12:14 pm Jun 21 9:14 am
427.00 06/21/2018 15:13:04 Jun 21 11:13 am Jun 21 8:13 am
530.00 06/21/2018 14:13:20 Jun 21 10:13 am Jun 21 7:13 am
530.00 06/21/2018 13:13:36 Jun 21 09:13 am Jun 21 6:13 am
548.00 06/21/2018 10:14:24 Jun 21 06:14 am Jun 21 3:14 am
539.00 06/21/2018 08:14:56 Jun 21 04:14 am Jun 21 1:14 am
539.00 06/21/2018 07:13:04 Jun 21 03:13 am Jun 21 12:13 am
539.00 06/21/2018 06:13:20 Jun 21 02:13 am Jun 20 11:13 pm
539.00 06/21/2018 05:13:36 Jun 21 01:13 am Jun 20 10:13 pm
539.00 06/21/2018 04:13:52 Jun 21 12:13 am Jun 20 9:13 pm
539.00 06/21/2018 03:14:08 Jun 20 11:14 pm Jun 20 8:14 pm
530.00 06/21/2018 02:14:24 Jun 20 10:14 pm Jun 20 7:14 pm
530.00 06/21/2018 01:14:40 Jun 20 09:14 pm Jun 20 6:14 pm
530.00 06/21/2018 00:14:56 Jun 20 08:14 pm Jun 20 5:14 pm
530.00 06/20/2018 23:13:04 Jun 20 07:13 pm Jun 20 4:13 pm
530.00 06/20/2018 22:13:20 Jun 20 06:13 pm Jun 20 3:13 pm
435.00 06/20/2018 21:13:36 Jun 20 05:13 pm Jun 20 2:13 pm
427.00 06/20/2018 20:13:52 Jun 20 04:13 pm Jun 20 1:13 pm
427.00 06/20/2018 19:14:08 Jun 20 03:14 pm Jun 20 12:14 pm
394.00 06/20/2018 18:14:24 Jun 20 02:14 pm Jun 20 11:14 am
342.00 06/20/2018 17:14:40 Jun 20 01:14 pm Jun 20 10:14 am
342.00 06/20/2018 16:14:56 Jun 20 12:14 pm Jun 20 9:14 am
350.00 06/20/2018 15:13:04 Jun 20 11:13 am Jun 20 8:13 am
350.00 06/20/2018 14:13:20 Jun 20 10:13 am Jun 20 7:13 am
342.00 06/20/2018 13:13:36 Jun 20 09:13 am Jun 20 6:13 am
342.00 06/20/2018 12:13:52 Jun 20 08:13 am Jun 20 5:13 am
350.00 06/20/2018 11:14:08 Jun 20 07:14 am Jun 20 4:14 am
342.00 06/20/2018 10:14:24 Jun 20 06:14 am Jun 20 3:14 am
342.00 06/20/2018 09:14:40 Jun 20 05:14 am Jun 20 2:14 am
342.00 06/20/2018 08:14:56 Jun 20 04:14 am Jun 20 1:14 am
342.00 06/20/2018 07:13:04 Jun 20 03:13 am Jun 20 12:13 am
342.00 06/20/2018 06:13:20 Jun 20 02:13 am Jun 19 11:13 pm
342.00 06/20/2018 05:13:36 Jun 20 01:13 am Jun 19 10:13 pm
342.00 06/20/2018 04:13:52 Jun 20 12:13 am Jun 19 9:13 pm
350.00 06/20/2018 03:14:08 Jun 19 11:14 pm Jun 19 8:14 pm
342.00 06/20/2018 02:14:24 Jun 19 10:14 pm Jun 19 7:14 pm
350.00 06/20/2018 01:14:40 Jun 19 09:14 pm Jun 19 6:14 pm
350.00 06/20/2018 00:14:56 Jun 19 08:14 pm Jun 19 5:14 pm
350.00 06/19/2018 23:13:04 Jun 19 07:13 pm Jun 19 4:13 pm
350.00 06/19/2018 22:13:20 Jun 19 06:13 pm Jun 19 3:13 pm
350.00 06/19/2018 21:13:36 Jun 19 05:13 pm Jun 19 2:13 pm
342.00 06/19/2018 20:13:52 Jun 19 04:13 pm Jun 19 1:13 pm
342.00 06/19/2018 19:14:08 Jun 19 03:14 pm Jun 19 12:14 pm
342.00 06/19/2018 18:14:24 Jun 19 02:14 pm Jun 19 11:14 am
350.00 06/19/2018 17:14:40 Jun 19 01:14 pm Jun 19 10:14 am
350.00 06/19/2018 16:14:56 Jun 19 12:14 pm Jun 19 9:14 am
350.00 06/19/2018 15:13:04 Jun 19 11:13 am Jun 19 8:13 am
350.00 06/19/2018 14:13:20 Jun 19 10:13 am Jun 19 7:13 am
350.00 06/19/2018 13:13:36 Jun 19 09:13 am Jun 19 6:13 am
350.00 06/19/2018 12:13:52 Jun 19 08:13 am Jun 19 5:13 am
350.00 06/19/2018 11:14:08 Jun 19 07:14 am Jun 19 4:14 am
350.00 06/19/2018 10:14:24 Jun 19 06:14 am Jun 19 3:14 am
350.00 06/19/2018 09:14:40 Jun 19 05:14 am Jun 19 2:14 am
350.00 06/19/2018 08:14:56 Jun 19 04:14 am Jun 19 1:14 am
350.00 06/19/2018 07:13:04 Jun 19 03:13 am Jun 19 12:13 am
350.00 06/19/2018 06:13:20 Jun 19 02:13 am Jun 18 11:13 pm
350.00 06/19/2018 05:13:36 Jun 19 01:13 am Jun 18 10:13 pm
350.00 06/19/2018 04:13:52 Jun 19 12:13 am Jun 18 9:13 pm
350.00 06/19/2018 03:14:08 Jun 18 11:14 pm Jun 18 8:14 pm
350.00 06/19/2018 02:14:24 Jun 18 10:14 pm Jun 18 7:14 pm
357.00 06/19/2018 01:14:40 Jun 18 09:14 pm Jun 18 6:14 pm
357.00 06/19/2018 00:14:56 Jun 18 08:14 pm Jun 18 5:14 pm
364.00 06/18/2018 23:13:04 Jun 18 07:13 pm Jun 18 4:13 pm
364.00 06/18/2018 22:13:20 Jun 18 06:13 pm Jun 18 3:13 pm
372.00 06/18/2018 21:13:36 Jun 18 05:13 pm Jun 18 2:13 pm
372.00 06/18/2018 20:13:52 Jun 18 04:13 pm Jun 18 1:13 pm
379.00 06/18/2018 19:14:08 Jun 18 03:14 pm Jun 18 12:14 pm
387.00 06/18/2018 18:14:24 Jun 18 02:14 pm Jun 18 11:14 am
402.00 06/18/2018 17:14:40 Jun 18 01:14 pm Jun 18 10:14 am
503.00 06/18/2018 16:14:56 Jun 18 12:14 pm Jun 18 9:14 am
512.00 06/18/2018 15:13:04 Jun 18 11:13 am Jun 18 8:13 am
512.00 06/18/2018 14:13:20 Jun 18 10:13 am Jun 18 7:13 am
512.00 06/18/2018 13:13:36 Jun 18 09:13 am Jun 18 6:13 am
512.00 06/18/2018 12:13:52 Jun 18 08:13 am Jun 18 5:13 am
512.00 06/18/2018 11:14:08 Jun 18 07:14 am Jun 18 4:14 am
512.00 06/18/2018 10:14:24 Jun 18 06:14 am Jun 18 3:14 am
512.00 06/18/2018 09:14:40 Jun 18 05:14 am Jun 18 2:14 am
512.00 06/18/2018 08:14:56 Jun 18 04:14 am Jun 18 1:14 am
521.00 06/18/2018 07:13:04 Jun 18 03:13 am Jun 18 12:13 am
521.00 06/18/2018 06:13:20 Jun 18 02:13 am Jun 17 11:13 pm
521.00 06/18/2018 05:13:36 Jun 18 01:13 am Jun 17 10:13 pm
512.00 06/18/2018 04:13:52 Jun 18 12:13 am Jun 17 9:13 pm
512.00 06/18/2018 03:14:08 Jun 17 11:14 pm Jun 17 8:14 pm
512.00 06/18/2018 02:14:24 Jun 17 10:14 pm Jun 17 7:14 pm
512.00 06/18/2018 01:14:40 Jun 17 09:14 pm Jun 17 6:14 pm
460.00 06/18/2018 00:14:56 Jun 17 08:14 pm Jun 17 5:14 pm
451.00 06/17/2018 23:13:04 Jun 17 07:13 pm Jun 17 4:13 pm
451.00 06/17/2018 22:13:20 Jun 17 06:13 pm Jun 17 3:13 pm
427.00 06/17/2018 21:13:36 Jun 17 05:13 pm Jun 17 2:13 pm
419.00 06/17/2018 20:13:52 Jun 17 04:13 pm Jun 17 1:13 pm
419.00 06/17/2018 19:14:08 Jun 17 03:14 pm Jun 17 12:14 pm
427.00 06/17/2018 18:14:24 Jun 17 02:14 pm Jun 17 11:14 am
427.00 06/17/2018 17:14:40 Jun 17 01:14 pm Jun 17 10:14 am
427.00 06/17/2018 16:14:56 Jun 17 12:14 pm Jun 17 9:14 am
427.00 06/17/2018 15:13:04 Jun 17 11:13 am Jun 17 8:13 am
427.00 06/17/2018 14:13:20 Jun 17 10:13 am Jun 17 7:13 am
427.00 06/17/2018 13:13:36 Jun 17 09:13 am Jun 17 6:13 am
427.00 06/17/2018 12:13:52 Jun 17 08:13 am Jun 17 5:13 am
419.00 06/17/2018 11:14:08 Jun 17 07:14 am Jun 17 4:14 am
419.00 06/17/2018 10:14:24 Jun 17 06:14 am Jun 17 3:14 am
427.00 06/17/2018 09:14:40 Jun 17 05:14 am Jun 17 2:14 am
419.00 06/17/2018 08:14:56 Jun 17 04:14 am Jun 17 1:14 am
419.00 06/17/2018 07:13:04 Jun 17 03:13 am Jun 17 12:13 am
427.00 06/17/2018 06:13:20 Jun 17 02:13 am Jun 16 11:13 pm
419.00 06/17/2018 05:13:36 Jun 17 01:13 am Jun 16 10:13 pm
419.00 06/17/2018 04:13:52 Jun 17 12:13 am Jun 16 9:13 pm
419.00 06/17/2018 02:14:24 Jun 16 10:14 pm Jun 16 7:14 pm
419.00 06/16/2018 23:13:04 Jun 16 07:13 pm Jun 16 4:13 pm
419.00 06/16/2018 22:13:20 Jun 16 06:13 pm Jun 16 3:13 pm
427.00 06/16/2018 19:14:08 Jun 16 03:14 pm Jun 16 12:14 pm
419.00 06/16/2018 18:14:24 Jun 16 02:14 pm Jun 16 11:14 am
427.00 06/16/2018 17:14:40 Jun 16 01:14 pm Jun 16 10:14 am
427.00 06/16/2018 16:14:56 Jun 16 12:14 pm Jun 16 9:14 am
427.00 06/16/2018 15:13:04 Jun 16 11:13 am Jun 16 8:13 am
427.00 06/16/2018 13:13:36 Jun 16 09:13 am Jun 16 6:13 am
427.00 06/16/2018 12:13:52 Jun 16 08:13 am Jun 16 5:13 am
427.00 06/16/2018 11:14:08 Jun 16 07:14 am Jun 16 4:14 am
427.00 06/16/2018 10:14:24 Jun 16 06:14 am Jun 16 3:14 am
419.00 06/16/2018 09:14:40 Jun 16 05:14 am Jun 16 2:14 am
427.00 06/16/2018 08:14:56 Jun 16 04:14 am Jun 16 1:14 am
419.00 06/16/2018 07:13:04 Jun 16 03:13 am Jun 16 12:13 am
419.00 06/16/2018 06:13:20 Jun 16 02:13 am Jun 15 11:13 pm
410.00 06/16/2018 05:13:36 Jun 16 01:13 am Jun 15 10:13 pm
410.00 06/16/2018 04:13:52 Jun 16 12:13 am Jun 15 9:13 pm
410.00 06/16/2018 03:14:08 Jun 15 11:14 pm Jun 15 8:14 pm
410.00 06/16/2018 00:14:56 Jun 15 08:14 pm Jun 15 5:14 pm
419.00 06/15/2018 23:13:04 Jun 15 07:13 pm Jun 15 4:13 pm
419.00 06/15/2018 22:13:20 Jun 15 06:13 pm Jun 15 3:13 pm
419.00 06/15/2018 21:13:36 Jun 15 05:13 pm Jun 15 2:13 pm
419.00 06/15/2018 20:13:52 Jun 15 04:13 pm Jun 15 1:13 pm
427.00 06/15/2018 19:14:08 Jun 15 03:14 pm Jun 15 12:14 pm
427.00 06/15/2018 18:14:24 Jun 15 02:14 pm Jun 15 11:14 am
427.00 06/15/2018 17:14:40 Jun 15 01:14 pm Jun 15 10:14 am
427.00 06/15/2018 16:14:56 Jun 15 12:14 pm Jun 15 9:14 am
427.00 06/15/2018 15:13:04 Jun 15 11:13 am Jun 15 8:13 am
427.00 06/15/2018 14:13:20 Jun 15 10:13 am Jun 15 7:13 am
435.00 06/15/2018 13:13:36 Jun 15 09:13 am Jun 15 6:13 am
435.00 06/15/2018 12:13:52 Jun 15 08:13 am Jun 15 5:13 am
435.00 06/15/2018 11:14:08 Jun 15 07:14 am Jun 15 4:14 am
427.00 06/15/2018 10:14:24 Jun 15 06:14 am Jun 15 3:14 am
427.00 06/15/2018 09:14:40 Jun 15 05:14 am Jun 15 2:14 am
427.00 06/15/2018 08:14:56 Jun 15 04:14 am Jun 15 1:14 am
419.00 06/15/2018 07:13:04 Jun 15 03:13 am Jun 15 12:13 am
419.00 06/15/2018 06:13:20 Jun 15 02:13 am Jun 14 11:13 pm
419.00 06/15/2018 05:13:36 Jun 15 01:13 am Jun 14 10:13 pm
419.00 06/15/2018 04:13:52 Jun 15 12:13 am Jun 14 9:13 pm
419.00 06/15/2018 03:14:08 Jun 14 11:14 pm Jun 14 8:14 pm
410.00 06/15/2018 01:14:40 Jun 14 09:14 pm Jun 14 6:14 pm
419.00 06/15/2018 00:14:56 Jun 14 08:14 pm Jun 14 5:14 pm
427.00 06/14/2018 23:13:04 Jun 14 07:13 pm Jun 14 4:13 pm
427.00 06/14/2018 22:13:20 Jun 14 06:13 pm Jun 14 3:13 pm
427.00 06/14/2018 21:13:36 Jun 14 05:13 pm Jun 14 2:13 pm
435.00 06/14/2018 20:13:52 Jun 14 04:13 pm Jun 14 1:13 pm
443.00 06/14/2018 19:14:08 Jun 14 03:14 pm Jun 14 12:14 pm
443.00 06/14/2018 18:14:24 Jun 14 02:14 pm Jun 14 11:14 am
443.00 06/14/2018 17:14:40 Jun 14 01:14 pm Jun 14 10:14 am
443.00 06/14/2018 16:14:56 Jun 14 12:14 pm Jun 14 9:14 am
443.00 06/14/2018 15:13:04 Jun 14 11:13 am Jun 14 8:13 am
443.00 06/14/2018 12:13:52 Jun 14 08:13 am Jun 14 5:13 am
443.00 06/14/2018 11:14:08 Jun 14 07:14 am Jun 14 4:14 am
443.00 06/14/2018 10:14:24 Jun 14 06:14 am Jun 14 3:14 am
443.00 06/14/2018 09:14:40 Jun 14 05:14 am Jun 14 2:14 am
443.00 06/14/2018 08:14:56 Jun 14 04:14 am Jun 14 1:14 am
435.00 06/14/2018 07:13:04 Jun 14 03:13 am Jun 14 12:13 am
427.00 06/14/2018 06:13:20 Jun 14 02:13 am Jun 13 11:13 pm
427.00 06/14/2018 05:13:36 Jun 14 01:13 am Jun 13 10:13 pm
427.00 06/14/2018 04:13:52 Jun 14 12:13 am Jun 13 9:13 pm
419.00 06/14/2018 01:14:40 Jun 13 09:14 pm Jun 13 6:14 pm
427.00 06/14/2018 00:14:56 Jun 13 08:14 pm Jun 13 5:14 pm
427.00 06/13/2018 23:13:04 Jun 13 07:13 pm Jun 13 4:13 pm
427.00 06/13/2018 22:13:20 Jun 13 06:13 pm Jun 13 3:13 pm
435.00 06/13/2018 21:13:36 Jun 13 05:13 pm Jun 13 2:13 pm
435.00 06/13/2018 20:13:52 Jun 13 04:13 pm Jun 13 1:13 pm
435.00 06/13/2018 19:14:08 Jun 13 03:14 pm Jun 13 12:14 pm
435.00 06/13/2018 18:14:24 Jun 13 02:14 pm Jun 13 11:14 am
443.00 06/13/2018 17:14:40 Jun 13 01:14 pm Jun 13 10:14 am
443.00 06/13/2018 16:14:56 Jun 13 12:14 pm Jun 13 9:14 am
443.00 06/13/2018 15:13:04 Jun 13 11:13 am Jun 13 8:13 am
443.00 06/13/2018 14:13:20 Jun 13 10:13 am Jun 13 7:13 am
443.00 06/13/2018 13:13:36 Jun 13 09:13 am Jun 13 6:13 am
443.00 06/13/2018 12:13:52 Jun 13 08:13 am Jun 13 5:13 am
443.00 06/13/2018 11:14:08 Jun 13 07:14 am Jun 13 4:14 am
443.00 06/13/2018 10:14:24 Jun 13 06:14 am Jun 13 3:14 am
443.00 06/13/2018 09:14:40 Jun 13 05:14 am Jun 13 2:14 am
435.00 06/13/2018 08:14:56 Jun 13 04:14 am Jun 13 1:14 am
443.00 06/13/2018 07:13:04 Jun 13 03:13 am Jun 13 12:13 am
435.00 06/13/2018 06:13:20 Jun 13 02:13 am Jun 12 11:13 pm
435.00 06/13/2018 05:13:36 Jun 13 01:13 am Jun 12 10:13 pm
427.00 06/13/2018 04:13:52 Jun 13 12:13 am Jun 12 9:13 pm
427.00 06/13/2018 03:14:08 Jun 12 11:14 pm Jun 12 8:14 pm
435.00 06/12/2018 23:13:04 Jun 12 07:13 pm Jun 12 4:13 pm
435.00 06/12/2018 22:13:20 Jun 12 06:13 pm Jun 12 3:13 pm
435.00 06/12/2018 21:13:36 Jun 12 05:13 pm Jun 12 2:13 pm
443.00 06/12/2018 20:13:52 Jun 12 04:13 pm Jun 12 1:13 pm
443.00 06/12/2018 19:14:08 Jun 12 03:14 pm Jun 12 12:14 pm
435.00 06/12/2018 18:14:24 Jun 12 02:14 pm Jun 12 11:14 am
451.00 06/12/2018 17:14:40 Jun 12 01:14 pm Jun 12 10:14 am
451.00 06/12/2018 16:14:56 Jun 12 12:14 pm Jun 12 9:14 am
451.00 06/12/2018 15:13:04 Jun 12 11:13 am Jun 12 8:13 am
451.00 06/12/2018 13:13:36 Jun 12 09:13 am Jun 12 6:13 am
451.00 06/12/2018 12:13:52 Jun 12 08:13 am Jun 12 5:13 am
451.00 06/12/2018 11:14:08 Jun 12 07:14 am Jun 12 4:14 am
451.00 06/12/2018 10:14:24 Jun 12 06:14 am Jun 12 3:14 am
451.00 06/12/2018 09:14:40 Jun 12 05:14 am Jun 12 2:14 am
451.00 06/12/2018 08:14:56 Jun 12 04:14 am Jun 12 1:14 am
443.00 06/12/2018 07:13:04 Jun 12 03:13 am Jun 12 12:13 am
435.00 06/12/2018 01:14:40 Jun 11 09:14 pm Jun 11 6:14 pm
435.00 06/12/2018 00:14:56 Jun 11 08:14 pm Jun 11 5:14 pm
443.00 06/11/2018 23:13:04 Jun 11 07:13 pm Jun 11 4:13 pm
443.00 06/11/2018 22:13:20 Jun 11 06:13 pm Jun 11 3:13 pm
451.00 06/11/2018 21:13:36 Jun 11 05:13 pm Jun 11 2:13 pm
460.00 06/11/2018 18:14:24 Jun 11 02:14 pm Jun 11 11:14 am
460.00 06/11/2018 17:14:40 Jun 11 01:14 pm Jun 11 10:14 am
468.00 06/11/2018 16:14:56 Jun 11 12:14 pm Jun 11 9:14 am
468.00 06/11/2018 15:13:04 Jun 11 11:13 am Jun 11 8:13 am
476.00 06/11/2018 13:13:36 Jun 11 09:13 am Jun 11 6:13 am
476.00 06/11/2018 12:13:52 Jun 11 08:13 am Jun 11 5:13 am
468.00 06/11/2018 11:14:08 Jun 11 07:14 am Jun 11 4:14 am
468.00 06/11/2018 10:14:24 Jun 11 06:14 am Jun 11 3:14 am
468.00 06/11/2018 09:14:40 Jun 11 05:14 am Jun 11 2:14 am
468.00 06/11/2018 08:14:56 Jun 11 04:14 am Jun 11 1:14 am
468.00 06/11/2018 07:13:04 Jun 11 03:13 am Jun 11 12:13 am
460.00 06/11/2018 06:13:20 Jun 11 02:13 am Jun 10 11:13 pm
451.00 06/11/2018 05:13:36 Jun 11 01:13 am Jun 10 10:13 pm
460.00 06/11/2018 04:13:52 Jun 11 12:13 am Jun 10 9:13 pm
451.00 06/11/2018 03:14:08 Jun 10 11:14 pm Jun 10 8:14 pm
443.00 06/11/2018 01:14:40 Jun 10 09:14 pm Jun 10 6:14 pm
443.00 06/11/2018 00:14:56 Jun 10 08:14 pm Jun 10 5:14 pm
451.00 06/10/2018 23:13:04 Jun 10 07:13 pm Jun 10 4:13 pm
451.00 06/10/2018 22:13:20 Jun 10 06:13 pm Jun 10 3:13 pm
451.00 06/10/2018 21:13:36 Jun 10 05:13 pm Jun 10 2:13 pm
460.00 06/10/2018 20:13:52 Jun 10 04:13 pm Jun 10 1:13 pm
460.00 06/10/2018 19:14:08 Jun 10 03:14 pm Jun 10 12:14 pm
460.00 06/10/2018 18:14:24 Jun 10 02:14 pm Jun 10 11:14 am
468.00 06/10/2018 17:14:40 Jun 10 01:14 pm Jun 10 10:14 am
468.00 06/10/2018 16:14:56 Jun 10 12:14 pm Jun 10 9:14 am
476.00 06/10/2018 15:13:04 Jun 10 11:13 am Jun 10 8:13 am
468.00 06/10/2018 13:13:36 Jun 10 09:13 am Jun 10 6:13 am
476.00 06/10/2018 12:13:52 Jun 10 08:13 am Jun 10 5:13 am
476.00 06/10/2018 11:14:08 Jun 10 07:14 am Jun 10 4:14 am
476.00 06/10/2018 10:14:24 Jun 10 06:14 am Jun 10 3:14 am
476.00 06/10/2018 09:14:40 Jun 10 05:14 am Jun 10 2:14 am
468.00 06/10/2018 08:14:56 Jun 10 04:14 am Jun 10 1:14 am
468.00 06/10/2018 07:13:04 Jun 10 03:13 am Jun 10 12:13 am
468.00 06/10/2018 06:13:20 Jun 10 02:13 am Jun 9 11:13 pm
460.00 06/10/2018 05:13:36 Jun 10 01:13 am Jun 9 10:13 pm
460.00 06/10/2018 04:13:52 Jun 10 12:13 am Jun 9 9:13 pm
451.00 06/10/2018 03:14:08 Jun 9 11:14 pm Jun 9 8:14 pm
443.00 06/10/2018 01:14:40 Jun 9 09:14 pm Jun 9 6:14 pm
435.00 06/10/2018 00:14:56 Jun 9 08:14 pm Jun 9 5:14 pm
443.00 06/09/2018 23:13:04 Jun 9 07:13 pm Jun 9 4:13 pm
451.00 06/09/2018 22:13:20 Jun 9 06:13 pm Jun 9 3:13 pm
460.00 06/09/2018 21:13:36 Jun 9 05:13 pm Jun 9 2:13 pm
460.00 06/09/2018 20:13:52 Jun 9 04:13 pm Jun 9 1:13 pm
468.00 06/09/2018 19:14:08 Jun 9 03:14 pm Jun 9 12:14 pm
468.00 06/09/2018 18:14:24 Jun 9 02:14 pm Jun 9 11:14 am
468.00 06/09/2018 17:14:40 Jun 9 01:14 pm Jun 9 10:14 am
476.00 06/09/2018 16:14:56 Jun 9 12:14 pm Jun 9 9:14 am
476.00 06/09/2018 15:13:04 Jun 9 11:13 am Jun 9 8:13 am
476.00 06/09/2018 13:13:36 Jun 9 09:13 am Jun 9 6:13 am
476.00 06/09/2018 12:13:52 Jun 9 08:13 am Jun 9 5:13 am
476.00 06/09/2018 11:14:08 Jun 9 07:14 am Jun 9 4:14 am
485.00 06/09/2018 10:14:24 Jun 9 06:14 am Jun 9 3:14 am
476.00 06/09/2018 09:14:40 Jun 9 05:14 am Jun 9 2:14 am
485.00 06/09/2018 08:14:56 Jun 9 04:14 am Jun 9 1:14 am
476.00 06/09/2018 07:13:04 Jun 9 03:13 am Jun 9 12:13 am
476.00 06/09/2018 06:13:20 Jun 9 02:13 am Jun 8 11:13 pm
468.00 06/09/2018 05:13:36 Jun 9 01:13 am Jun 8 10:13 pm
460.00 06/09/2018 04:13:52 Jun 9 12:13 am Jun 8 9:13 pm
460.00 06/09/2018 03:14:08 Jun 8 11:14 pm Jun 8 8:14 pm
451.00 06/09/2018 00:14:56 Jun 8 08:14 pm Jun 8 5:14 pm
451.00 06/08/2018 23:13:04 Jun 8 07:13 pm Jun 8 4:13 pm
460.00 06/08/2018 22:13:20 Jun 8 06:13 pm Jun 8 3:13 pm
460.00 06/08/2018 21:13:36 Jun 8 05:13 pm Jun 8 2:13 pm
468.00 06/08/2018 20:13:52 Jun 8 04:13 pm Jun 8 1:13 pm
468.00 06/08/2018 19:14:08 Jun 8 03:14 pm Jun 8 12:14 pm
476.00 06/08/2018 18:14:24 Jun 8 02:14 pm Jun 8 11:14 am
476.00 06/08/2018 17:14:40 Jun 8 01:14 pm Jun 8 10:14 am
476.00 06/08/2018 16:14:56 Jun 8 12:14 pm Jun 8 9:14 am
476.00 06/08/2018 15:13:04 Jun 8 11:13 am Jun 8 8:13 am
485.00 06/08/2018 14:13:20 Jun 8 10:13 am Jun 8 7:13 am
485.00 06/08/2018 13:13:36 Jun 8 09:13 am Jun 8 6:13 am
494.00 06/08/2018 12:13:52 Jun 8 08:13 am Jun 8 5:13 am
494.00 06/08/2018 11:14:08 Jun 8 07:14 am Jun 8 4:14 am
485.00 06/08/2018 10:14:24 Jun 8 06:14 am Jun 8 3:14 am
485.00 06/08/2018 09:14:40 Jun 8 05:14 am Jun 8 2:14 am
485.00 06/08/2018 08:14:56 Jun 8 04:14 am Jun 8 1:14 am
494.00 06/08/2018 07:13:04 Jun 8 03:13 am Jun 8 12:13 am
485.00 06/08/2018 06:13:20 Jun 8 02:13 am Jun 7 11:13 pm
485.00 06/08/2018 05:13:36 Jun 8 01:13 am Jun 7 10:13 pm
485.00 06/08/2018 04:13:52 Jun 8 12:13 am Jun 7 9:13 pm
476.00 06/08/2018 03:14:08 Jun 7 11:14 pm Jun 7 8:14 pm
460.00 06/07/2018 22:13:20 Jun 7 06:13 pm Jun 7 3:13 pm
468.00 06/07/2018 21:13:36 Jun 7 05:13 pm Jun 7 2:13 pm
468.00 06/07/2018 20:13:52 Jun 7 04:13 pm Jun 7 1:13 pm
468.00 06/07/2018 19:14:08 Jun 7 03:14 pm Jun 7 12:14 pm
468.00 06/07/2018 18:14:24 Jun 7 02:14 pm Jun 7 11:14 am
476.00 06/07/2018 17:14:40 Jun 7 01:14 pm Jun 7 10:14 am

Report - Reports of Related Gauges

Reports give the public a chance to report on river conditions throughout the country as well as log the history of a river.

Reports

No Reports Filed

Linked Reaches

Click a heading to sort. Hover over a heading for help.
River Name/Section Class Level running? Updated
South Platte, North Fork [CO] 01. Bailey to Pine IV-V 410 cfs
-9 cfs/hr
R4-
Runnable
01h39m
South Platte, North Fork [CO] 02. Buffalo Creek to South Platte III-IV 410 cfs
-9 cfs/hr
R0-
Lower Runnable
01h39m